Find Starlink 1392

NORAD ID: 45677 Int'l Des: 2020-035 Owner: SPXS Country: US Constellation: starlink operational
LEOCIRCULAR

現在のビュー

3D地球を読み込み中...

About Starlink 1392

Starlink 1392 (NORAD 45677) is a starlink constellation satellite (v1.0) launched Jun 4, 2020 by SPXS of US. It operates in LEO, CIRCULAR orbit with a mass of 260.00 kg.

Starlink 1392について

説明を読み込み中...

次回通過

Passes for default location (London). Set your location on the main map for personalized predictions.

高度履歴

Loading altitude history...

軌道要素

1 45677U 20035W 26170.80505948 .00046816 00000-0 11736-2 0 9999
2 45677 53.1522 307.5133 0002499 276.6083 83.4638 15.39608792334436
Epoch: Jun 19, 2026 • Age: 43 hours

現在のステータス

高度 457.0 km
速度 7.64 km/s
衛星直下点 -35.22°S, 25.59°E
打ち上げ日 Jun 4, 2020
運用期間 6 years
タイプ internet

技術仕様

分類 Payload
質量 260.00 kg
乾燥質量 248.00 kg
総質量 260.00 kg
長さ 0.20 m
直径 2.80 m
スパン 9.00 m
形状 Box + pan
製造者 SPXS
バスタイプ Starlink
フェーズステータス In Orbit
所有者/国 SPXS/US

Most Searched